KC3SOZ Weather Reports


time (UTC)temp
F
wind
direction
speed
knots
gust
knots
rain 1hr
in
rain 24hr
in
rain mn
in
humidity
%
barometer
mb
20260505224138 78 239 8.7 13.0 0.00 0.02 0.02 42 1007.9
20260505223635 78 155 7.8 12.2 0.00 0.02 0.02 43 1007.9
20260505223130 78 249 9.6 15.6 0.00 0.02 0.02 42 1007.8
20260505222627 78 189 10.4 18.2 0.00 0.02 0.02 43 1008.0
20260505222123 78 186 9.6 15.6 0.00 0.02 0.02 42 1008.0
20260505221620 78 210 9.6 15.6 0.00 0.02 0.02 43 1007.7
20260505221117 78 208 7.8 14.8 0.00 0.02 0.02 41 1008.0
20260505220614 79 223 7.0 12.2 0.00 0.02 0.02 42 1007.9
20260505220112 79 226 14.8 20.9 0.00 0.02 0.02 40 1007.7
20260505215609 78 221 8.7 12.2 0.00 0.02 0.02 41 1007.8
20260505215107 78 226 12.2 19.1 0.00 0.02 0.02 41 1007.7
20260505214605 79 194 7.0 14.8 0.00 0.02 0.02 41 1007.7
20260505214102 79 228 13.9 19.1 0.00 0.02 0.02 41 1007.6
20260505213600 79 227 8.7 18.2 0.00 0.02 0.02 42 1007.7
20260505213056 78 213 6.1 20.0 0.00 0.02 0.02 43 1007.4
20260505212552 79 238 8.7 11.3 0.00 0.02 0.02 42 1007.6
20260505212050 78 230 9.6 13.0 0.00 0.02 0.02 44 1007.5
20260505211546 78 199 4.3 7.8 0.00 0.02 0.02 45 1007.4
20260505211043 78 225 6.1 19.1 0.00 0.02 0.02 44 1007.5
20260505210540 78 192 6.1 7.0 0.00 0.02 0.02 44 1007.9
20260505210037 78 222 4.3 17.4 0.00 0.02 0.02 46 1007.6
20260505205535 78 205 8.7 20.0 0.00 0.02 0.02 43 1007.6
20260505205032 78 212 7.8 15.6 0.00 0.02 0.02 43 1007.5
20260505204530 78 210 7.8 11.3 0.00 0.02 0.02 45 1007.7
20260505204027 78 307 4.3 15.6 0.00 0.02 0.02 44 1007.6
20260505203523 79 164 7.8 13.9 0.00 0.02 0.02 43 1007.6
20260505203020 78 236 8.7 14.8 0.00 0.02 0.02 43 1007.8
20260505202516 78 186 7.0 12.2 0.00 0.02 0.02 46 1007.6
20260505202012 78 184 5.2 12.2 0.00 0.02 0.02 43 1007.7
20260505201510 79 188 7.8 11.3 0.00 0.02 0.02 43 1007.7
20260505201007 78 187 5.2 13.0 0.00 0.02 0.02 44 1007.8
20260505200505 78 162 4.3 15.6 0.00 0.02 0.02 45 1007.7
20260505200001 79 226 13.9 15.6 0.00 0.02 0.02 42 1007.8
20260505195458 78 252 9.6 18.2 0.00 0.02 0.02 43 1007.8
20260505194955 78 205 12.2 17.4 0.00 0.02 0.02 43 1008.1
20260505194452 78 169 8.7 27.8 0.00 0.02 0.02 43 1008.0
20260505193952 79 228 11.3 19.1 0.00 0.02 0.02 42 1007.9
20260505193450 79 152 6.1 13.9 0.00 0.02 0.02 42 1007.8
20260505192947 80 225 8.7 13.9 0.00 0.02 0.02 42 1008.0
20260505192446 80 215 10.4 20.0 0.00 0.02 0.02 42 1007.8
20260505191943 80 235 9.6 13.0 0.00 0.02 0.02 41 1007.7
20260505191442 79 219 9.6 13.0 0.00 0.02 0.02 43 1008.0
20260505190938 78 207 8.7 15.6 0.00 0.02 0.02 45 1007.8
20260505190433 80 147 9.6 13.9 0.00 0.02 0.02 44 1008.1
20260505185929 79 184 6.1 12.2 0.00 0.02 0.02 46 1008.4
20260505185427 79 183 2.6 8.7 0.00 0.02 0.02 44 1008.5
20260505184923 78 143 7.8 18.2 0.00 0.02 0.02 45 1008.6
20260505184420 78 206 7.8 20.9 0.00 0.02 0.02 44 1008.6
20260505183916 80 205 12.2 15.6 0.00 0.02 0.02 40 1008.6
20260505183413 78 150 6.1 12.2 0.00 0.02 0.02 44 1008.9
20260505182910 79 231 13.0 17.4 0.00 0.02 0.02 42 1008.9
20260505182407 77 157 7.8 17.4 0.00 0.02 0.02 43 1009.1
20260505181903 78 248 7.8 13.9 0.00 0.02 0.02 42 1009.0
20260505181401 78 225 13.0 17.4 0.00 0.02 0.02 41 1008.7
20260505180857 79 199 13.0 19.1 0.00 0.02 0.02 42 1009.0
20260505180354 79 243 8.7 14.8 0.00 0.02 0.02 42 1009.0
20260505175850 79 182 6.1 9.6 0.00 0.02 0.02 42 1009.1
20260505175347 78 239 6.1 18.2 0.00 0.02 0.02 43 1009.2
20260505174843 79 184 13.0 20.0 0.00 0.02 0.02 42 1009.3
20260505174341 78 230 13.0 19.1 0.00 0.02 0.02 41 1009.1
20260505173836 77 245 12.2 20.0 0.00 0.02 0.02 43 1009.3
20260505173333 78 279 8.7 13.0 0.00 0.02 0.02 45 1009.3
20260505172830 78 239 10.4 12.2 0.00 0.02 0.02 45 1009.1
20260505172328 78 229 7.0 13.0 0.00 0.02 0.02 48 1009.4
20260505171827 78 241 6.1 12.2 0.00 0.02 0.02 48 1009.2
20260505171325 78 234 6.1 8.7 0.00 0.02 0.02 47 1009.3
20260505170821 77 239 11.3 13.9 0.00 0.02 0.02 46 1009.4
20260505170318 78 246 6.1 12.2 0.00 0.02 0.02 47 1009.7
20260505165813 78 181 4.3 9.6 0.00 0.02 0.02 50 1009.7
20260505165309 77 251 7.8 12.2 0.00 0.02 0.02 49 1009.7
20260505164805 77 189 5.2 14.8 0.00 0.02 0.02 49 1009.8
20260505164303 77 238 6.1 9.6 0.00 0.02 0.02 48 1009.9
20260505163801 77 242 4.3 11.3 0.00 0.02 0.02 49 1010.2
20260505163259 77 205 8.7 11.3 0.00 0.02 0.02 48 1010.3
20260505162756 78 238 7.0 11.3 0.00 0.02 0.02 47 1010.0
20260505162253 78 203 5.2 8.7 0.00 0.02 0.02 49 1009.9
20260505161750 77 312 6.1 12.2 0.00 0.02 0.02 47 1010.0
20260505161247 77 230 5.2 12.2 0.00 0.02 0.02 48 1010.3
20260505160744 77 213 6.1 7.0 0.00 0.02 0.02 49 1010.4
20260505160242 78 246 3.5 6.1 0.00 0.02 0.02 52 1010.1
20260505153221 75 212 7.8 18.2 0.00 0.02 0.02 52 1010.3
20260505152718 75 265 6.1 13.0 0.00 0.02 0.02 51 1010.3
20260505152214 75 208 8.7 12.2 0.00 0.02 0.02 50 1010.6
20260505151709 75 230 6.1 7.8 0.00 0.02 0.02 54 1010.5
20260505151207 75 196 5.2 7.8 0.00 0.02 0.02 55 1010.4
20260505150703 75 264 4.3 7.8 0.00 0.02 0.02 52 1010.6
20260505150201 75 187 5.2 11.3 0.00 0.02 0.02 53 1010.6
20260505140633 71 160 7.0 11.3 0.00 0.02 0.02 59 1011.0
20260505140131 70 192 5.2 13.0 0.00 0.02 0.02 60 1011.0
20260505124544 68 337 2.6 4.3 0.00 0.02 0.02 65 1011.4
20260505124040 68 96 1.7 1.7 0.00 0.02 0.02 66 1011.4
20260505123536 69 127 0.0 4.3 0.00 0.02 0.02 64 1011.2
20260505123033 67 148 0.0 0.9 0.00 0.02 0.02 69 1011.5
20260505122530 65 125 0.0 0.0 0.00 0.02 0.02 74 1011.5
20260505122027 63 150 0.0 1.7 0.00 0.02 0.02 78 1011.5
20260505121523 64 159 0.9 0.9 0.00 0.02 0.02 72 1011.3
20260505121020 64 202 2.6 2.6 0.00 0.02 0.02 71 1011.3
20260505120516 65 141 0.0 1.7 0.00 0.02 0.02 76 1011.3
20260505120012 65 80 0.9 1.7 0.00 0.02 0.02 75 1011.3
20260505115507 63 157 1.7 1.7 0.00 0.02 0.02 74 1011.3
20260505115005 63 145 0.9 1.7 0.00 0.02 0.02 85 1011.2
20260505114501 63 123 0.0 2.6 0.00 0.02 0.02 81 1010.8
20260505113958 62 112 0.0 0.9 0.00 0.02 0.02 84 1010.9
20260505113454 60 100 0.9 0.9 0.00 0.02 0.02 83 1011.1
20260505112950 59 129 0.0 0.0 0.00 0.02 0.02 86 1011.1
20260505112447 58 147 0.0 0.0 0.00 0.02 0.02 88 1011.0
20260505111944 57 147 0.0 2.6 0.00 0.02 0.02 90 1011.1
20260505111438 57 130 0.0 0.0 0.00 0.02 0.02 91 1011.1
20260505110935 56 106 0.9 0.9 0.00 0.02 0.02 91 1010.9
20260505110432 55 89 1.7 1.7 0.00 0.02 0.02 91 1011.1
20260505101903 54 128 2.6 2.6 0.00 0.02 0.02 89 1010.6
20260505101357 53 106 1.7 5.2 0.00 0.02 0.02 92 1010.7
20260505100854 53 123 1.7 2.6 0.00 0.02 0.02 92 1010.5
20260505100350 52 140 0.9 2.6 0.00 0.02 0.02 97 1010.4
20260505095846 53 143 3.5 4.3 0.00 0.02 0.02 93 1010.5
20260505095344 54 120 0.0 0.0 0.00 0.02 0.02 89 1010.6
20260505094839 55 131 1.7 1.7 0.00 0.02 0.02 89 1010.4
20260505094337 56 138 0.0 0.0 0.00 0.02 0.02 83 1010.4
20260505093832 57 172 1.7 1.7 0.00 0.02 0.02 83 1010.6
20260505093330 57 158 0.0 0.0 0.00 0.02 0.02 83 1010.4
20260505092827 57 119 0.0 0.9 0.00 0.02 0.02 83 1010.5
20260505092325 58 154 0.0 1.7 0.00 0.02 0.02 82 1010.2
20260505091822 57 144 0.0 1.7 0.00 0.02 0.02 82 1010.2
20260505091320 59 122 3.5 4.3 0.00 0.02 0.02 81 1010.4
20260505090818 59 163 0.9 6.1 0.00 0.02 0.02 79 1010.2
20260505090316 59 162 0.9 4.3 0.00 0.02 0.02 80 1010.2
20260505085812 58 324 2.6 2.6 0.00 0.02 0.02 83 1010.3
20260505085310 58 92 2.6 2.6 0.00 0.02 0.02 82 1010.2
20260505084808 58 96 0.0 2.6 0.00 0.02 0.02 83 1010.3
20260505084306 59 117 0.0 1.7 0.00 0.02 0.02 82 1010.3
20260505083803 56 216 4.3 6.1 0.00 0.02 0.02 85 1010.2
20260505083300 56 113 0.0 0.0 0.00 0.02 0.02 90 1010.3
20260505082756 55 75 0.0 1.7 0.00 0.02 0.02 92 1010.4
20260505082253 56 134 0.0 2.6 0.00 0.02 0.02 91 1010.2
20260505081749 56 114 2.6 2.6 0.00 0.02 0.02 94 1010.1
20260505081247 56 144 0.0 0.9 0.00 0.02 0.02 94 1010.2
20260505080743 56 147 0.0 0.0 0.00 0.02 0.02 95 1010.4
20260505080239 56 306 2.6 2.6 0.00 0.02 0.02 94 1010.1
20260505075735 56 103 0.9 2.6 0.00 0.02 0.02 94 1010.3
20260505075232 55 97 1.7 2.6 0.00 0.02 0.02 98 1010.2
20260505074729 56 75 0.0 0.9 0.00 0.02 0.02 98 1010.2
20260505074227 56 127 0.0 0.0 0.00 0.02 0.02 98 1010.3
20260505073724 56 137 0.0 1.7 0.00 0.02 0.02 98 1010.3
20260505073222 57 148 0.0 0.9 0.00 0.02 0.02 98 1010.1
20260505072718 58 140 0.0 1.7 0.00 0.02 0.02 95 1010.2
20260505072214 59 141 0.0 1.7 0.00 0.02 0.02 90 1010.4
20260505071709 59 153 0.9 7.0 0.00 0.02 0.02 83 1010.4
20260505071207 58 333 7.0 11.3 0.00 0.02 0.02 89 1010.5
20260505070705 58 129 0.9 1.7 0.00 0.02 0.02 88 1009.8
20260505070201 58 149 0.0 4.3 0.00 0.02 0.02 90 1009.6
20260505065656 60 161 3.5 5.2 0.14 0.02 0.02 83 1009.4
20260505065154 60 231 6.1 11.3 0.07 0.01 0.01 79 1010.3
20260505064651 59 98 0.0 0.0 0.00 0.00 0.00 79 1010.4
20260505064149 58 97 0.0 0.0 0.00 0.00 0.00 78 1010.0
20260505063646 59 121 0.0 0.9 0.00 0.00 0.00 77 1010.0
20260505063142 59 144 1.7 1.7 0.00 0.00 0.00 77 1009.9
20260505062638 60 143 1.7 4.3 0.00 0.00 0.00 76 1010.1
20260505062136 58 115 0.0 0.9 0.00 0.00 0.00 77 1010.1
20260505061633 59 108 0.9 0.9 0.00 0.00 0.00 76 1009.9
20260505061131 59 120 0.0 0.9 0.00 0.00 0.00 75 1010.0
20260505060628 59 97 2.6 2.6 0.00 0.00 0.00 73 1010.0
20260505060125 59 78 0.9 1.7 0.00 0.00 0.00 75 1010.0
20260505055620 59 77 1.7 1.7 0.00 0.00 0.00 74 1010.2
20260505055117 60 59 1.7 1.7 0.00 0.00 0.00 73 1010.1
20260505054614 60 114 0.0 1.7 0.00 0.00 0.00 72 1009.9
20260505054112 62 130 0.0 2.6 0.00 0.00 0.00 66 1010.3
20260505053609 60 82 2.6 4.3 0.00 0.00 0.00 67 1010.2
20260505053105 62 113 0.0 0.9 0.00 0.00 0.00 67 1010.4
20260505052603 62 78 0.0 1.7 0.00 0.00 0.00 66 1010.4
20260505052100 61 51 2.6 4.3 0.00 0.00 0.00 64 1010.3
20260505051557 60 146 0.0 2.6 0.00 0.00 0.00 72 1010.4
20260505051055 59 111 0.0 0.0 0.00 0.00 0.00 72 1010.2
20260505050553 59 115 0.0 0.9 0.00 0.00 0.00 71 1010.2
20260505041520 64 209 3.5 7.0 0.00 0.00 0.00 58 1009.9
20260505041018 64 210 3.5 8.7 0.00 0.00 0.00 58 1009.9
20260505040515 64 217 6.1 7.8 0.00 0.00 0.00 58 1009.8
20260505040012 64 158 2.6 7.8 0.00 0.00 0.00 58 1009.6
20260505035508 64 164 11.3 15.6 0.00 0.00 0.00 57 1009.5
20260505035005 64 182 3.5 7.8 0.00 0.00 0.00 58 1010.0
20260505034501 64 203 2.6 11.3 0.00 0.00 0.00 58 1009.8
20260505033959 64 227 7.0 9.6 0.00 0.00 0.00 58 1009.7
20260505033455 64 195 4.3 12.2 0.00 0.00 0.00 56 1009.6
20260505032954 64 190 7.8 12.2 0.00 0.00 0.00 56 1009.6
20260505032451 64 184 10.4 15.6 0.00 0.00 0.00 56 1009.7
20260505031947 64 157 10.4 18.2 0.00 0.00 0.00 56 1009.5
20260505031444 64 193 9.6 17.4 0.00 0.00 0.00 56 1009.7
20260505030941 64 146 5.2 15.6 0.00 0.00 0.00 56 1009.8
20260505030437 64 196 7.0 14.8 0.00 0.00 0.00 55 1009.6
20260505025932 64 189 7.8 13.9 0.00 0.00 0.00 55 1009.5
20260505025430 64 160 9.6 12.2 0.00 0.00 0.00 55 1009.6
20260505024928 64 187 11.3 13.9 0.00 0.00 0.00 55 1009.7
20260505024425 64 149 5.2 9.6 0.00 0.00 0.00 56 1009.7
20260505023922 64 201 8.7 12.2 0.00 0.00 0.00 55 1009.7
20260505023419 65 173 7.0 13.0 0.00 0.00 0.00 55 1009.5
20260505022917 65 220 6.1 11.3 0.00 0.00 0.00 53 1009.7
20260505022414 65 208 11.3 14.8 0.00 0.00 0.00 53 1009.7
20260505021911 65 159 4.3 7.0 0.00 0.00 0.00 55 1009.8
20260505021407 65 147 10.4 12.2 0.00 0.00 0.00 54 1009.8
20260505020903 65 137 13.0 18.2 0.00 0.00 0.00 54 1010.0
20260505020359 64 140 10.4 13.9 0.00 0.00 0.00 54 1009.8
20260505015856 65 144 4.3 9.6 0.00 0.00 0.00 55 1009.8
20260505015353 65 156 3.5 9.6 0.00 0.00 0.00 54 1009.9
20260505014850 65 204 5.2 7.8 0.00 0.00 0.00 54 1009.8
20260505014347 65 156 1.7 7.8 0.00 0.00 0.00 54 1010.0
20260505013844 65 211 4.3 14.8 0.00 0.00 0.00 54 1009.7
20260505013341 66 213 9.6 13.9 0.00 0.00 0.00 52 1009.8
20260505012839 66 233 11.3 13.9 0.00 0.00 0.00 52 1009.9
20260505012337 66 168 3.5 8.7 0.00 0.00 0.00 53 1009.7
20260505011833 66 165 7.8 12.2 0.00 0.00 0.00 52 1010.0
20260505011330 66 163 6.1 9.6 0.00 0.00 0.00 53 1009.7
20260505010826 66 188 7.0 11.3 0.00 0.00 0.00 52 1009.5
20260505010322 66 102 9.6 13.9 0.00 0.00 0.00 53 1009.6
20260505005818 66 160 4.3 7.0 0.00 0.00 0.00 52 1009.5
20260505005315 66 144 0.0 2.6 0.00 0.00 0.00 53 1009.2
20260505004813 68 231 3.5 6.1 0.00 0.00 0.00 49 1009.5
20260505004308 68 207 4.3 7.8 0.00 0.00 0.00 49 1009.1
20260505003806 69 235 7.8 9.6 0.00 0.00 0.00 48 1008.9
20260505003303 69 188 3.5 9.6 0.00 0.00 0.00 48 1009.2
20260505002759 68 223 7.0 7.8 0.00 0.00 0.00 49 1009.3
20260505002257 68 209 2.6 5.2 0.00 0.00 0.00 49 1009.2
20260505001755 69 217 4.3 7.0 0.00 0.00 0.00 48 1009.4
20260505001252 69 217 3.5 9.6 0.00 0.00 0.00 48 1009.2
20260505000749 69 197 4.3 12.2 0.00 0.00 0.00 48 1009.1
20260505000247 69 203 6.1 13.0 0.00 0.00 0.00 47 1009.0
20260504235743 69 203 5.2 7.0 0.00 0.00 0.00 48 1009.1
20260504235239 69 168 1.7 5.2 0.00 0.00 0.00 48 1009.1
20260504234736 69 178 3.5 5.2 0.00 0.00 0.00 48 1009.0
20260504234234 69 224 6.1 12.2 0.00 0.00 0.00 47 1009.0
20260504233730 69 209 6.1 8.7 0.00 0.00 0.00 47 1009.1
20260504233226 69 224 4.3 9.6 0.00 0.00 0.00 47 1009.0
20260504232723 70 212 6.1 8.7 0.00 0.00 0.00 46 1008.8
20260504232220 70 194 4.3 8.7 0.00 0.00 0.00 47 1008.8
20260504231716 70 204 7.8 13.0 0.00 0.00 0.00 46 1008.9
20260504231213 70 233 7.8 13.0 0.00 0.00 0.00 46 1009.2
20260504230709 70 206 7.8 11.3 0.00 0.00 0.00 45 1008.8
20260504230208 70 176 3.5 9.6 0.00 0.00 0.00 46 1008.9
20260504225706 70 223 6.1 12.2 0.00 0.00 0.00 46 1008.6
20260504225202 70 196 5.2 8.7 0.00 0.00 0.00 45 1008.7
20260504224659 70 187 7.8 12.2 0.00 0.00 0.00 46 1008.9